Location: Coffee Creek Observatory
(38.8077°N, 94.7179°W)
Time: 16:39:26
(UTC-06:00)

Amateur Radio Satellites - All Passes

Search period start: 27 February 2015 16:09
Search period end: 28 February 2015 16:09
Location: Coffee Creek Observatory, 38.8077°N, 94.7179°W

Satellite Date Start Highest point End Downlink Frequencies (MHz)
Time Altitude Azimuth
JAS-2 27 Feb 16:10:12 16:15:31 84° 256° (WSW) 16:21:26 435.910
KKS-1 27 Feb 16:18:07 16:21:06 17° 293° (WNW) 16:23:56 437.445
M-CUBED/EXP-1 PRIME 27 Feb 16:29:15 16:33:15 44° 104° (ESE) 16:37:34 437.505
ISS 27 Feb 16:30:39 16:33:43 39° 32° (NNE) 16:36:48 145.825
YUBILEINY 27 Feb 16:31:27 16:40:02 68° 93° (E) 16:48:45 435.215
STARS 27 Feb 16:32:42 16:35:45 18° 293° (WNW) 16:38:40 437.465
AUBIESAT-1 27 Feb 16:34:18 16:38:19 44° 104° (ESE) 16:42:39 437.475
Cubesat XI-IV 27 Feb 17:01:43 17:06:21 32° 69° (ENE) 17:11:07 437.490
MOZHAYETS 4 27 Feb 17:02:24 17:07:02 70° 101° (E) 17:11:40
CUTE-I 27 Feb 17:11:28 17:16:22 38° 70° (ENE) 17:21:21 437.470
BEESAT 3 27 Feb 17:13:44 17:16:18 17° 111° (ESE) 17:19:03 437.485
AO-7 27 Feb 17:29:11 17:34:35 17° 271° (W) 17:39:26 29.400- 29.500
BEESAT 2 27 Feb 17:34:28 17:37:47 24° 113° (ESE) 17:41:13 435.950
PRISM 27 Feb 17:52:53 17:55:29 16° 92° (E) 17:58:14 437.425
M-CUBED/EXP-1 PRIME 27 Feb 18:05:12 18:07:58 17° 296° (WNW) 18:10:44 437.505
ISS 27 Feb 18:07:31 18:10:00 20° 228° (SW) 18:12:25 145.825
AUBIESAT-1 27 Feb 18:10:13 18:12:58 17° 296° (WNW) 18:15:42 437.475
PHONESAT 2.4 27 Feb 18:28:51 18:30:52 14° 146° (SE) 18:32:58 2401.200-2431.200
YUBILEINY 27 Feb 18:30:45 18:37:45 25° 294° (WNW) 18:44:28 435.215
O/OREOS (USA 219) 27 Feb 18:36:30 18:37:32 11° 50° (NE) 18:38:49 437.305
Cubesat XI-IV 27 Feb 18:41:41 18:46:27 31° 264° (W) 18:51:10 437.490
MOZHAYETS 4 27 Feb 18:41:57 18:43:46 12° 296° (WNW) 18:45:20
HO-68 27 Feb 18:42:39 18:47:18 20° 59° (ENE) 18:52:13 435.675
VERMONT LUNAR 27 Feb 18:48:13 18:51:27 35° 154° (SSE) 18:54:41 437.305
AIST 2 27 Feb 18:49:38 18:53:49 62° 118° (ESE) 18:58:04 435.215
BEESAT 3 27 Feb 18:50:14 18:54:07 41° 306° (NW) 18:58:04 437.485
CUBESAT XI-V 27 Feb 18:51:28 18:56:13 75° 102° (ESE) 19:00:55 437.345
CUTE-I 27 Feb 18:52:09 18:56:35 25° 266° (W) 19:00:56 437.470
BRITE-PL 27 Feb 18:56:56 19:01:03 22° 67° (ENE) 19:05:16 437.365/2234.400
AIST 1 27 Feb 19:00:07 19:04:34 87° 263° (W) 19:08:57
STRAND 1 27 Feb 19:11:37 19:16:46 68° 101° (E) 19:21:53 437.568
BEESAT 2 27 Feb 19:12:13 19:15:52 29° 309° (NW) 19:19:33 435.950
GOMX 1 27 Feb 19:19:21 19:23:28 23° 68° (ENE) 19:27:36 467.674
CANX-2 27 Feb 19:24:58 19:27:58 20° 69° (ENE) 19:31:04 2200.000
PRISM 27 Feb 19:27:14 19:31:12 38° 288° (WNW) 19:35:06 437.425
SEEDS 27 Feb 19:27:48 19:30:17 16° 68° (ENE) 19:32:57 437.485
CUTE 1.7 + AOD 2 27 Feb 19:43:26 19:47:01 28° 71° (ENE) 19:50:40 437.475
PHONESAT 2.4 27 Feb 20:05:20 20:08:55 59° 160° (SSE) 20:12:31 2401.200-2431.200
Oscar 11 27 Feb 20:08:32 20:11:10 16° 67° (ENE) 20:13:56 145.826/435.025
DOVE 4 27 Feb 20:09:26 20:14:25 47° 74° (ENE) 20:19:14 437.250
O/OREOS (USA 219) 27 Feb 20:13:05 20:17:42 83° 248° (WSW) 20:22:16 437.305
VERMONT LUNAR 27 Feb 20:25:46 20:29:15 77° 348° (NNW) 20:32:46 437.305
HO-68 27 Feb 20:27:10 20:34:19 80° 255° (WSW) 20:41:31 435.675
DX 1 27 Feb 20:27:23 20:29:34 14° 65° (ENE) 20:31:57 434.975-435.025
AIST 2 27 Feb 20:30:15 20:32:53 15° 317° (NW) 20:35:25 435.215
CUBESAT XI-V 27 Feb 20:31:27 20:33:06 11° 296° (WNW) 20:34:30 437.345
DELFI C3 27 Feb 20:33:00 20:36:06 22° 70° (ENE) 20:39:19 145.870
BRITE-PL 27 Feb 20:33:41 20:39:14 52° 261° (W) 20:44:40 437.365/2234.400
COMPASS 1 27 Feb 20:39:14 20:43:24 88° 78° (ENE) 20:47:35 437.405
AAUSAT CUBESAT 2 27 Feb 20:39:23 20:43:31 77° 77° (ENE) 20:47:40 437.432
CINEMA 3 27 Feb 20:42:44 20:47:29 55° 75° (ENE) 20:52:04 145.822/145.860
ZACube-1 27 Feb 20:45:28 20:48:44 21° 69° (ENE) 20:52:04 437.345
FUNcube-1 27 Feb 20:45:31 20:48:45 21° 69° (ENE) 20:52:02 145.935
GONETS M04 27 Feb 20:47:31 20:52:26 18° 80° (E) 20:57:52
STRAND 1 27 Feb 20:52:35 20:55:27 15° 297° (WNW) 20:58:06 437.568
GOMX 1 27 Feb 20:56:07 21:01:21 45° 262° (W) 21:06:24 467.674
UWE-3 27 Feb 20:56:11 21:00:12 34° 72° (ENE) 21:04:12 435.000/436.395/437.385
UKube-1 27 Feb 20:59:33 21:03:16 29° 70° (ENE) 21:07:04 .
CANX-2 27 Feb 20:59:55 21:03:44 32° 264° (W) 21:07:32 2200.000
SEEDS 27 Feb 21:01:53 21:05:50 40° 262° (W) 21:09:47 437.485
HUMSAT D 27 Feb 21:15:11 21:18:27 23° 70° (ENE) 21:21:46 437.325/437.525
CUTE 1.7 + AOD 2 27 Feb 21:19:39 21:22:59 22° 267° (W) 21:26:13 437.475
PCSat 27 Feb 21:22:10 21:27:32 70° 115° (ESE) 21:32:58 145.827
CUBEBUG 2 27 Feb 21:25:59 21:30:35 89° 78° (ENE) 21:35:03 437.445
Oscar 11 27 Feb 21:42:59 21:47:04 41° 262° (W) 21:51:09 145.826/435.025
PHONESAT 2.4 27 Feb 21:43:48 21:47:25 66° 356° (N) 21:51:02 2401.200-2431.200
50 SAT 27 Feb 21:46:26 21:50:03 34° 72° (ENE) 21:53:42 437.505
DOVE 4 27 Feb 21:48:34 21:52:24 20° 268° (W) 21:55:57 437.250
AISAT 27 Feb 21:49:06 21:53:21 43° 72° (ENE) 21:57:39 437.250
VELOX 1 27 Feb 22:00:07 22:04:29 55° 74° (ENE) 22:08:54 145.980
DX 1 27 Feb 22:01:08 22:05:25 53° 260° (W) 22:09:45 434.975-435.025
ESTCUBE 1 27 Feb 22:03:45 22:07:34 28° 70° (ENE) 22:11:29 437.505/2401.250
VERMONT LUNAR 27 Feb 22:03:52 22:07:21 69° 7° (N) 22:10:49 437.305
CUBEBUG 1 27 Feb 22:04:53 22:08:31 26° 70° (ENE) 22:12:16 437.445
DELFI C3 27 Feb 22:07:50 22:11:15 25° 265° (W) 22:14:36 145.870
HO-68 27 Feb 22:20:31 22:23:18 12° 274° (W) 22:25:28 435.675
FUNcube-1 27 Feb 22:20:56 22:24:57 33° 263° (W) 22:28:51 145.935
ZACube-1 27 Feb 22:20:57 22:24:58 32° 263° (W) 22:28:52 437.345
UNISAT 6 27 Feb 22:21:06 22:24:48 28° 96° (E) 22:28:34 437.425
CINEMA 3 27 Feb 22:22:14 22:25:01 15° 270° (W) 22:27:33 145.822/145.860
POLYITAN 1 27 Feb 22:22:43 22:25:15 16° 91° (E) 22:27:57 437.675
POPSAT HIP 1 27 Feb 22:24:53 22:27:31 17° 92° (E) 22:30:18 437.405
RS-15 27 Feb 22:29:35 22:37:54 28° 105° (ESE) 22:46:42 29.354- 29.394
UWE-3 27 Feb 22:33:26 22:36:51 20° 267° (W) 22:40:05 435.000/436.395/437.385
UKube-1 27 Feb 22:35:56 22:39:27 23° 266° (W) 22:42:53 .
GONETS M04 27 Feb 22:39:35 22:48:17 86° 276° (W) 22:57:02
TIGRISAT 27 Feb 22:47:29 22:51:41 56° 100° (E) 22:55:54 435.000
NANOSAT C BR1 27 Feb 22:48:31 22:52:16 31° 96° (E) 22:56:02 145.865
HUMSAT D 27 Feb 22:50:28 22:54:09 28° 265° (W) 22:57:44 437.325/437.525
SPROUT 27 Feb 22:50:38 22:53:45 20° 69° (ENE) 22:57:00 437.525
ANTELSAT 27 Feb 22:59:09 23:03:27 80° 102° (ESE) 23:07:47 437.575/2403.000
TISAT 1 27 Feb 23:05:47 23:09:21 27° 70° (ENE) 23:13:00 437.305
PCSat 27 Feb 23:07:45 23:11:33 18° 315° (NW) 23:15:14 145.827
QB50P1 27 Feb 23:20:08 23:24:23 76° 102° (ESE) 23:28:35 145.935-145.965
PHONESAT 2.4 27 Feb 23:22:23 23:26:02 87° 12° (NNE) 23:29:39 2401.200-2431.200
50 SAT 27 Feb 23:22:38 23:25:14 16° 268° (W) 23:27:40 437.505
QB50P2 27 Feb 23:22:47 23:27:02 83° 101° (E) 23:31:16 145.880/145.840
DANDE 27 Feb 23:23:44 23:28:29 20° 92° (E) 23:32:51 436.750
AISAT 27 Feb 23:27:16 23:30:13 17° 268° (W) 23:33:01 437.250
VELOX 1 27 Feb 23:39:22 23:41:29 13° 270° (W) 23:43:22 145.980
ESTCUBE 1 27 Feb 23:40:39 23:44:26 25° 265° (W) 23:48:11 437.505/2401.250
DUCHIFAT 1 27 Feb 23:40:53 23:45:04 62° 285° (WNW) 23:49:12 145.980
CUBEBUG 1 27 Feb 23:41:03 23:44:51 27° 265° (W) 23:48:36 437.445
VERMONT LUNAR 27 Feb 23:41:53 23:45:15 47° 203° (SSW) 23:48:34 437.305
BUGSAT 1 27 Feb 23:47:42 23:51:53 69° 285° (WNW) 23:55:58 437.445
POLYITAN 1 27 Feb 23:57:27 00:01:25 38° 288° (WNW) 00:05:19 437.675
UNISAT 6 27 Feb 23:58:06 00:01:31 23° 290° (WNW) 00:04:51 437.425
POPSAT HIP 1 27 Feb 23:59:41 00:03:37 37° 288° (WNW) 00:07:29 437.405
CUSAT 1 28 Feb 00:10:38 00:17:25 57° 97° (E) 00:22:39 437.405
NANOSAT C BR1 28 Feb 00:24:47 00:27:59 20° 291° (WNW) 00:31:03 145.865
SPROUT 28 Feb 00:25:42 00:29:40 34° 263° (W) 00:33:37 437.525
SWISSCUBE 28 Feb 00:25:47 00:30:04 35° 70° (ENE) 00:34:25 437.505
TIGRISAT 28 Feb 00:26:10 00:28:03 12° 294° (WNW) 00:29:43 435.000
BEESAT 28 Feb 00:34:53 00:39:17 40° 71° (ENE) 00:43:46 436.000
RS-15 28 Feb 00:38:26 00:49:22 74° 305° (NW) 01:00:26 29.354- 29.394
GONETS M04 28 Feb 00:41:22 00:46:43 16° 300° (WNW) 00:51:33
TISAT 1 28 Feb 00:41:35 00:45:08 24° 265° (W) 00:48:37 437.305
Oscar 19 28 Feb 00:46:49 00:50:07 18° 91° (E) 00:53:38 437.125/150
ITUPSAT 1 28 Feb 00:59:49 01:04:34 71° 74° (ENE) 01:09:22 437.325
PHONESAT 2.4 28 Feb 01:01:09 01:04:18 28° 209° (SSW) 01:07:25 2401.200-2431.200
DANDE 28 Feb 01:04:24 01:11:48 64° 280° (W) 01:17:27 436.750
VERMONT LUNAR 28 Feb 01:22:17 01:22:41 10° 216° (SW) 01:22:55 437.305
Gurwin Techsat 1B 28 Feb 01:32:42 01:34:17 12° 87° (E) 01:36:15 435.225
KKS-1 28 Feb 01:37:37 01:41:37 33° 71° (ENE) 01:45:40 437.445
STARS 28 Feb 01:51:25 01:55:16 30° 70° (ENE) 01:59:10 437.465
CUSAT 1 28 Feb 01:55:41 02:00:22 20° 287° (WNW) 02:04:07 437.405
BEESAT 2 28 Feb 01:55:53 01:57:57 14° 42° (NE) 02:00:08 435.950
SO-50 28 Feb 01:56:43 02:00:51 36° 114° (ESE) 02:05:11 436.795
SWISSCUBE 28 Feb 02:04:14 02:08:02 23° 266° (W) 02:11:45 437.505
BEESAT 28 Feb 02:13:48 02:17:20 20° 267° (W) 02:20:45 436.000
ITAMSAT 1 28 Feb 02:16:12 02:21:10 43° 98° (E) 02:26:08 435.822/435.867
Oscar 19 28 Feb 02:24:52 02:29:49 50° 288° (WNW) 02:34:45 437.125/150
ITUPSAT 1 28 Feb 02:41:43 02:43:05 11° 272° (W) 02:44:06 437.325
YUBILEINY 28 Feb 02:43:41 02:51:14 32° 69° (ENE) 02:58:58 435.215
RS-15 28 Feb 02:55:27 03:04:09 25° 332° (NNW) 03:12:45 29.354- 29.394
Gurwin Techsat 1B 28 Feb 03:09:40 03:15:00 79° 286° (WNW) 03:20:19 435.225
BEESAT 3 28 Feb 03:10:24 03:14:33 80° 58° (ENE) 03:18:38 437.485
AIST 2 28 Feb 03:13:02 03:16:45 29° 50° (NE) 03:20:28 435.215
KKS-1 28 Feb 03:14:53 03:18:22 21° 267° (W) 03:21:44 437.445
M-CUBED/EXP-1 PRIME 28 Feb 03:18:15 03:21:20 39° 69° (ENE) 03:24:32 437.505
JAS-2 28 Feb 03:20:42 03:25:18 18° 88° (E) 03:30:29 435.910
AUBIESAT-1 28 Feb 03:22:50 03:25:55 40° 69° (ENE) 03:29:07 437.475
STARS 28 Feb 03:28:12 03:31:47 23° 266° (W) 03:35:16 437.465
HORYU 2 28 Feb 03:31:55 03:36:13 47° 99° (E) 03:40:32 437.375
BEESAT 2 28 Feb 03:32:30 03:36:39 69° 241° (WSW) 03:40:42 435.950
AO-7 28 Feb 03:35:58 03:43:04 32° 95° (E) 03:50:20 29.400- 29.500
SO-50 28 Feb 03:37:33 03:41:30 26° 313° (NW) 03:45:31 436.795
ITAMSAT 1 28 Feb 03:56:23 04:00:25 22° 294° (WNW) 04:04:19 435.822/435.867
MOZHAYETS 4 28 Feb 04:03:05 04:07:31 55° 75° (ENE) 04:12:01
JUGNU 28 Feb 04:09:16 04:10:34 11° 174° (S) 04:11:54 437.505
YUBILEINY 28 Feb 04:39:59 04:48:32 55° 269° (W) 04:57:00 435.215
PRISM 28 Feb 04:44:08 04:45:05 11° 65° (ENE) 04:46:18 437.425
AIST 2 28 Feb 04:51:42 04:55:18 26° 247° (WSW) 04:58:47 435.215
STRAND 1 28 Feb 04:52:09 04:52:46 10° 61° (ENE) 04:53:43 437.568
JAS-2 28 Feb 05:03:41 05:11:05 85° 285° (WNW) 05:18:57 435.910
HORYU 2 28 Feb 05:09:49 05:12:33 16° 294° (WNW) 05:15:07 437.375
RS-15 28 Feb 05:15:19 05:22:06 17° 8° (N) 05:29:10 29.354- 29.394
Cubesat XI-IV 28 Feb 05:21:47 05:24:10 13° 88° (E) 05:26:53 437.490
AO-7 28 Feb 05:28:13 05:36:15 55° 294° (WNW) 05:44:11 29.400- 29.500
CUTE-I 28 Feb 05:30:58 05:34:13 17° 90° (E) 05:37:41 437.470
MOZHAYETS 4 28 Feb 05:42:58 05:45:12 13° 271° (W) 05:47:10
SRMSAT 28 Feb 05:53:20 05:54:52 11° 175° (S) 05:56:27 437.500
CUBESAT XI-V 28 Feb 05:53:27 05:58:03 62° 74° (ENE) 06:02:43 437.345
JUGNU 28 Feb 05:56:59 05:58:42 11° 184° (S) 06:00:23 437.505
PCSat 28 Feb 06:11:29 06:16:38 42° 55° (NE) 06:21:46 145.827
PRISM 28 Feb 06:16:02 06:20:08 62° 259° (W) 06:24:16 437.425
STRAND 1 28 Feb 06:26:08 06:31:17 85° 73° (ENE) 06:36:28 437.568
JAS-2 28 Feb 06:50:45 06:55:22 17° 299° (WNW) 06:59:48 435.910
Cubesat XI-IV 28 Feb 06:59:32 07:04:54 70° 286° (WNW) 07:10:14 437.490
CUTE-I 28 Feb 07:09:29 07:14:45 58° 287° (WNW) 07:19:59 437.470
AO-7 28 Feb 07:24:55 07:27:24 11° 313° (NW) 07:29:21 29.400- 29.500
AIST 1 28 Feb 07:28:07 07:32:22 58° 95° (E) 07:36:41
RS-15 28 Feb 07:28:58 07:39:11 37° 40° (NE) 07:49:59 29.354- 29.394
CUBESAT XI-V 28 Feb 07:34:00 07:36:01 12° 272° (W) 07:37:45 437.345
SRMSAT 28 Feb 07:41:37 07:43:10 11° 185° (S) 07:44:40 437.500
PCSat 28 Feb 07:55:25 07:59:51 25° 252° (WSW) 08:04:09 145.827
HO-68 28 Feb 07:57:34 08:02:34 21° 91° (E) 08:07:53 435.675
DOVE 4 28 Feb 08:12:59 08:14:01 11° 88° (E) 08:15:19 437.250
COMPASS 1 28 Feb 08:25:31 08:28:00 16° 91° (E) 08:30:39 437.405
AAUSAT CUBESAT 2 28 Feb 08:25:38 08:27:36 13° 90° (E) 08:29:47 437.432
BRITE-PL 28 Feb 08:40:51 08:45:26 58° 99° (E) 08:49:41 437.365/2234.400
CINEMA 3 28 Feb 08:41:25 08:42:55 12° 89° (E) 08:44:38 145.822/145.860
CANX-2 28 Feb 08:46:11 08:50:15 44° 98° (E) 08:54:20 2200.000
O/OREOS (USA 219) 28 Feb 08:47:22 08:49:22 13° 100° (E) 08:51:37 437.305
SEEDS 28 Feb 08:47:36 08:51:28 34° 97° (E) 08:55:22 437.485
GONETS M04 28 Feb 08:51:35 08:59:50 45° 74° (ENE) 09:08:11
GOMX 1 28 Feb 08:59:59 09:04:24 62° 100° (E) 09:08:34 467.674
CUTE 1.7 + AOD 2 28 Feb 09:05:06 09:09:20 68° 101° (E) 09:13:34 437.475
AIST 1 28 Feb 09:09:09 09:10:34 11° 293° (WNW) 09:11:44
ISS 28 Feb 09:09:34 09:12:07 22° 133° (SE) 09:14:43 145.825
POLYITAN 1 28 Feb 09:16:15 09:17:39 12° 65° (ENE) 09:19:18 437.675
POPSAT HIP 1 28 Feb 09:18:04 09:19:37 12° 65° (ENE) 09:21:23 437.405
UNISAT 6 28 Feb 09:19:26 09:22:53 23° 70° (ENE) 09:26:23 437.425
CUBEBUG 2 28 Feb 09:19:38 09:22:30 18° 92° (E) 09:25:29 437.445
Oscar 11 28 Feb 09:31:32 09:35:32 36° 97° (E) 09:39:34 145.826/435.025
NANOSAT C BR1 28 Feb 09:40:33 09:43:45 21° 69° (ENE) 09:47:03 145.865
RS-15 28 Feb 09:41:12 09:52:38 72° 243° (WSW) 10:04:30 29.354- 29.394
HO-68 28 Feb 09:43:49 09:50:58 69° 289° (WNW) 09:58:05 435.675
TIGRISAT 28 Feb 09:45:05 09:49:17 42° 73° (ENE) 09:53:26 435.000
DOVE 4 28 Feb 09:48:07 09:52:20 54° 286° (WNW) 09:56:23 437.250
DELFI C3 28 Feb 09:48:23 09:52:18 45° 98° (E) 09:56:15 145.870
DX 1 28 Feb 09:51:12 09:54:57 28° 96° (E) 09:58:43 434.975-435.025
VELOX 1 28 Feb 09:54:31 09:55:53 11° 89° (E) 09:57:31 145.980
ANTELSAT 28 Feb 09:56:55 10:01:18 60° 74° (ENE) 10:05:37 437.575/2403.000
AAUSAT CUBESAT 2 28 Feb 09:59:33 10:03:34 45° 286° (WNW) 10:07:34 437.432
COMPASS 1 28 Feb 10:00:00 10:03:56 39° 287° (WNW) 10:07:50 437.405
FUNcube-1 28 Feb 10:10:23 10:14:24 48° 99° (E) 10:18:26 145.935
ZACube-1 28 Feb 10:10:36 10:14:38 49° 99° (E) 10:18:41 437.345
QB50P1 28 Feb 10:11:37 10:15:43 47° 74° (ENE) 10:19:52 145.935-145.965
QB50P2 28 Feb 10:14:24 10:18:34 52° 74° (ENE) 10:22:46 145.880/145.840
CINEMA 3 28 Feb 10:16:30 10:20:33 48° 286° (WNW) 10:24:32 145.822/145.860
BRITE-PL 28 Feb 10:21:16 10:23:25 13° 297° (WNW) 10:25:18 437.365/2234.400
CANX-2 28 Feb 10:23:22 10:25:52 15° 293° (WNW) 10:28:15 2200.000
UWE-3 28 Feb 10:23:28 10:27:39 89° 111° (ESE) 10:31:48 435.000/436.395/437.385
UKube-1 28 Feb 10:23:52 10:28:12 63° 101° (E) 10:32:29 .
O/OREOS (USA 219) 28 Feb 10:23:53 10:28:22 54° 294° (WNW) 10:32:53 437.305
SEEDS 28 Feb 10:24:05 10:27:05 19° 291° (WNW) 10:29:58 437.485
SO-50 28 Feb 10:29:16 10:33:26 27° 47° (NE) 10:37:40 436.795
DUCHIFAT 1 28 Feb 10:31:49 10:36:06 81° 78° (ENE) 10:40:25 145.980
HUMSAT D 28 Feb 10:35:29 10:39:28 48° 99° (E) 10:43:28 437.325/437.525
BUGSAT 1 28 Feb 10:36:11 10:40:25 68° 75° (ENE) 10:44:41 437.445
GOMX 1 28 Feb 10:40:29 10:42:00 11° 296° (WNW) 10:43:17 467.674
CUTE 1.7 + AOD 2 28 Feb 10:44:01 10:44:47 10° 295° (WNW) 10:45:17 437.475
ISS 28 Feb 10:45:24 10:48:25 35° 328° (NNW) 10:51:26 145.825
GONETS M04 28 Feb 10:48:42 10:56:34 38° 273° (W) 11:04:17
POLYITAN 1 28 Feb 10:48:53 10:53:09 62° 259° (W) 10:57:25 437.675
POPSAT HIP 1 28 Feb 10:50:50 10:55:05 59° 260° (W) 10:59:20 437.405
CUSAT 1 28 Feb 10:53:23 10:54:58 15° 72° (ENE) 10:56:35 437.405
CUBEBUG 2 28 Feb 10:55:38 10:59:21 31° 288° (WNW) 11:03:00 437.445
UNISAT 6 28 Feb 10:55:39 10:59:36 29° 264° (W) 11:03:25 437.425
50 SAT 28 Feb 11:00:48 11:04:45 69° 101° (E) 11:08:41 437.505
Oscar 11 28 Feb 11:08:27 11:11:30 19° 292° (WNW) 11:14:25 145.826/435.025
NANOSAT C BR1 28 Feb 11:15:37 11:19:28 31° 264° (W) 11:23:16 145.865
AISAT 28 Feb 11:17:38 11:22:06 77° 285° (WNW) 11:26:31 437.250
TIGRISAT 28 Feb 11:23:29 11:26:17 16° 268° (W) 11:28:52 435.000
DELFI C3 28 Feb 11:24:59 11:27:12 14° 293° (WNW) 11:29:13 145.870
DX 1 28 Feb 11:27:32 11:31:06 24° 291° (WNW) 11:34:35 434.975-435.025
VELOX 1 28 Feb 11:28:33 11:32:57 59° 286° (WNW) 11:37:17 145.980
CUBEBUG 1 28 Feb 11:30:37 11:35:00 61° 101° (E) 11:39:21 437.445
ESTCUBE 1 28 Feb 11:33:46 11:38:21 74° 102° (ESE) 11:42:53 437.505/2401.250
HO-68 28 Feb 11:34:32 11:37:34 13° 306° (NW) 11:40:12 435.675
ANTELSAT 28 Feb 11:37:08 11:38:33 11° 271° (W) 11:39:41 437.575/2403.000
FUNcube-1 28 Feb 11:48:20 11:50:25 13° 293° (WNW) 11:52:19 145.935
ZACube-1 28 Feb 11:48:38 11:50:40 13° 294° (WNW) 11:52:29 437.345
QB50P1 28 Feb 11:49:39 11:51:56 14° 270° (W) 11:54:00 145.935-145.965
DANDE 28 Feb 11:49:56 11:52:40 80° 263° (W) 11:55:15 436.750
QB50P2 28 Feb 11:52:56 11:54:52 12° 270° (W) 11:56:34 145.880/145.840
RS-15 28 Feb 11:57:34 12:03:33 14° 260° (W) 12:08:29 29.354- 29.394
UKube-1 28 Feb 12:02:14 12:03:53 12° 296° (WNW) 12:05:18 .
Oscar 19 28 Feb 12:02:22 12:06:21 24° 67° (ENE) 12:10:28 437.125/150
SO-50 28 Feb 12:09:31 12:14:08 39° 245° (WSW) 12:18:41 436.795
HUMSAT D 28 Feb 12:12:55 12:14:54 13° 293° (WNW) 12:16:42 437.325/437.525
SPROUT 28 Feb 12:13:27 12:17:34 44° 98° (E) 12:21:40 437.525
ISS 28 Feb 12:24:41 12:25:37 11° 347° (NNW) 12:26:30 145.825
TISAT 1 28 Feb 12:26:51 12:31:02 57° 100° (E) 12:35:10 437.305
BEESAT 28 Feb 12:38:57 12:40:08 11° 88° (E) 12:41:39 436.000
Gurwin Techsat 1B 28 Feb 12:51:49 12:55:14 18° 65° (ENE) 12:58:51 435.225
ITUPSAT 1 28 Feb 13:02:41 13:06:12 21° 93° (E) 13:09:51 437.325
CUBEBUG 1 28 Feb 13:09:00 13:10:54 12° 295° (WNW) 13:12:35 437.445
ESTCUBE 1 28 Feb 13:13:19 13:14:41 11° 296° (WNW) 13:15:48 437.505/2401.250
ITAMSAT 1 28 Feb 13:32:49 13:37:54 58° 73° (ENE) 13:43:04 435.822/435.867
Oscar 19 28 Feb 13:40:42 13:45:31 39° 262° (W) 13:50:19 437.125/150
SPROUT 28 Feb 13:50:44 13:53:21 16° 293° (WNW) 13:55:49 437.525
SWISSCUBE 28 Feb 14:04:38 14:09:29 81° 283° (WNW) 14:14:17 437.505
TISAT 1 28 Feb 14:04:39 14:06:25 12° 295° (WNW) 14:07:58 437.305
BEESAT 28 Feb 14:13:48 14:18:35 71° 285° (WNW) 14:23:22 436.000
HORYU 2 28 Feb 14:29:12 14:33:17 37° 72° (ENE) 14:37:24 437.375
Gurwin Techsat 1B 28 Feb 14:29:36 14:34:48 57° 260° (W) 14:40:04 435.225
AO-7 28 Feb 14:33:29 14:41:01 41° 63° (ENE) 14:48:40 29.400- 29.500
ITUPSAT 1 28 Feb 14:39:47 14:44:17 39° 289° (WNW) 14:48:44 437.325
KKS-1 28 Feb 15:06:06 15:10:34 83° 103° (ESE) 15:14:59 437.445
ITAMSAT 1 28 Feb 15:14:39 15:17:53 16° 270° (W) 15:20:53 435.822/435.867
JAS-2 28 Feb 15:15:57 15:20:43 33° 67° (ENE) 15:26:01 435.910
STARS 28 Feb 15:18:18 15:22:43 72° 103° (ESE) 15:27:03 437.465
ISS 28 Feb 15:37:55 15:40:36 23° 27° (NNE) 15:43:19 145.825
YUBILEINY 28 Feb 15:43:10 15:50:48 37° 87° (E) 15:58:41 435.215
MOZHAYETS 4 28 Feb 16:00:58 16:03:29 15° 90° (E) 16:06:13
